Weather History for MMDO - September, 2013

Change the Weather History Date:

Saturday, September 21, 2013

  Actual Average Record
Temperature  
Mean Temperature 69 °F -  
Max Temperature 78 °F 77 °F 86 °F (1998)
Min Temperature 60 °F 49 °F 42 °F (2012)
Cooling Degree Days 4    
Growing Degree Days 19 (Base 50)    
Moisture  
Dew Point 57 °F    
Average Humidity 73    
Maximum Humidity 89    
Minimum Humidity 44    
Precipitation  
Precipitation 0.35 in - - ()
Sea Level Pressure  
Sea Level Pressure 29.91 in    
Wind  
Wind Speed 2 mph ()    
Max Wind Speed 15 mph    
Max Gust Speed -    
Visibility 11.0 miles    
Events Rain    
Averages and records for this station are not official NWS values.
T = Trace of Precipitation, MM = Missing Value Source: Averaged Metar Reports

Daily Weather History Graph

Daily Weather History Graph

Search for Another Location

Airport or City:

Trip Planner

Search our weather history database for the weather conditions in past years. The results will help you decide how hot, cold, wet, or windy it might be!

Date:

Astronomy

Sep. 21, 2013 Rise Set
Actual Time 7:46 AM CDT 7:55 PM CDT
Civil Twilight 7:23 AM CDT 8:17 PM CDT
Nautical Twilight 6:57 AM CDT 8:44 PM CDT
Astronomical Twilight 6:30 AM CDT 9:10 PM CDT
Moon 9:29 PM CDT (9/21) 9:48 AM CDT (9/21)
Length of Visible Light 12h 53m
Length of Day
12h 08m
Waning Gibbous, 94% of the Moon is Illuminated
Sep 21
Waning Gibbous
Sep 26
Last Quarter
Oct 4
New
Oct 11
First Quarter
Oct 18
Full

Hourly Weather History & Observations

Time (CDT) Temp. Dew Point Humidity Pressure Visibility Wind Dir Wind Speed Gust Speed Precip Events Conditions
12:50 AM 65 °F 60 °F 78% 29.71 in 6 mi NE 2.2 mph - -   Overcast
3:11 AM 59.0 °F 55.4 °F 88% 30.15 in 8.0 mi North 3.5 mph - N/A   Scattered Clouds
3:44 AM 59.0 °F 55.4 °F 88% 29.70 in 8.0 mi Calm Calm - N/A   Scattered Clouds
3:55 AM 61 °F 57 °F 82% 29.75 in 6 mi Calm Calm - -   Scattered Clouds
4:47 AM 60.8 °F 57.2 °F 88% 30.13 in 8.0 mi Calm Calm - N/A   Overcast
5:41 AM 60.8 °F 55.4 °F 82% 30.13 in 8.0 mi Calm Calm - N/A   Overcast
6:49 AM 60.8 °F 57.2 °F 88% 29.69 in 8.0 mi WSW 3.5 mph - N/A   Overcast
6:50 AM 62 °F 57 °F 77% 29.79 in 9 mi Calm Calm - -   Overcast
7:40 AM 60.8 °F 55.4 °F 82% 30.14 in 8.0 mi Calm Calm - N/A   Mostly Cloudy
8:40 AM 60.8 °F 57.2 °F 88% 30.16 in 10.0 mi Calm Calm - N/A   Overcast
9:40 AM 62.6 °F 57.2 °F 82% 29.80 in 10.0 mi Calm Calm - N/A   Mostly Cloudy
9:50 AM 65 °F 58 °F 71% 29.83 in 19 mi NE 2.2 mph - -   Overcast
10:41 AM 66.2 °F 57.2 °F 73% 30.17 in 10.0 mi Calm Calm - N/A   Mostly Cloudy
11:40 AM 66.2 °F 57.2 °F 73% 30.17 in 12.0 mi Calm Calm - N/A   Overcast
12:45 PM 69.8 °F 57.2 °F 64% 29.76 in 14.0 mi Calm Calm - N/A   Mostly Cloudy
12:58 PM 70 °F 57 °F 55% 29.80 in 31 mi East 2.2 mph - -   Overcast
1:45 PM 71.6 °F 57.2 °F 60% 30.13 in 14.0 mi NNW 4.6 mph - N/A   Overcast
2:42 PM 73.4 °F 57.2 °F 57% 30.10 in 14.0 mi West 4.6 mph - N/A   Mostly Cloudy
3:48 PM 73.4 °F 57.2 °F 57% 29.65 in 14.0 mi NNW 5.8 mph - N/A   Mostly Cloudy
3:55 PM 74 °F 57 °F 44% 29.70 in 31 mi Calm Calm - -   Mostly Cloudy
4:42 PM 75.2 °F 57.2 °F 53% 30.04 in 14.0 mi NNE 6.9 mph - N/A   Mostly Cloudy
5:44 PM 71.6 °F 57.2 °F 60% 30.04 in 14.0 mi NNE 12.7 mph - N/A   Mostly Cloudy
6:47 PM 68.0 °F 57.2 °F 68% 29.65 in 14.0 mi North 15.0 mph - N/A   Mostly Cloudy
6:50 PM 65 °F 63 °F 89% 29.65 in 19 mi NE 8.9 mph - - Rain Light Drizzle
7:45 PM 66.2 °F 57.2 °F 73% 30.07 in 12.0 mi NNE 9.2 mph - N/A   Mostly Cloudy
8:40 PM 64.4 °F 57.2 °F 77% 30.10 in 10.0 mi NE 5.8 mph - N/A   Overcast
9:50 PM 64 °F 58 °F 77% 29.69 in 6 mi NE 6.7 mph - -   Partly Cloudy